Tracking 25710 objects as of 5-Jul-2022
HD Live streaming from Space Station
objects crossing your sky now

FENGYUN 1C DEB

Track FENGYUN 1C DEB now!
10-day predictions


NORAD ID: 31270
Int'l Code: 1999-025BNC
Perigee: 614.9 km
Apogee: 796.2 km
Inclination: 99.0 °
Period: 98.7 minutes
Semi major axis: 7076 km
RCS: 0.0105 m2 (small)
Launch date: May 10, 1999
Source: People's Republic of China (PRC)
Launch site: Taiyaun Space Center, China (TSC)

Note: This is SATELLITE DEBRIS
aabbcc
Your satellite tracking list
Your tracking list is empty




NASA's NSSDC Master Catalog

Two Line Element Set (TLE):
1 31270U 99025BNC 22185.46421003  .00003367  00000-0  66016-3 0  9997
2 31270  98.9961 252.7158 0128103  91.1747 270.4129 14.58386754808878
Source of the keplerian elements: AFSPC